Regional Weather Roundup
Issued by NWS

Home | Current Version | Previous Version | Text Only | Print | Product List | Glossary On
Versions: 1 2 3 4 5 6 7 8 9 10 11 12 13 14 15 16 17 18 19 20 21 22 23 24 25 26 27 28 29 30 31 32 33 34 35 36 37 38 39 40 41 42 43 44 45 46 47 48 49 50
000
ASUS43 KBIS 170810
RWRND

NORTH DAKOTA REGIONAL WEATHER ROUNDUP
NATIONAL WEATHER SERVICE BISMARCK ND
300 AM CDT THU AUG 17 2017

NOTE: "FAIR" INDICATES FEW OR NO CLOUDS BELOW 12,000 FEET WITH NO
SIGNIFICANT WEATHER AND/OR OBSTRUCTIONS TO VISIBILITY.


NDZ001>003-009>011-017-170900-
NORTHWEST NORTH DAKOTA

CITY           SKY/WX    TMP DP  RH WIND       PRES   REMARKS
WILLISTON      PTCLDY    68  53  58 E6        29.85F
MINOT          PTCLDY    60  53  77 SW9       29.88S
MINOT AFB      CLOUDY    59  52  76 SW7       29.86F
$$

NDZ018>021-031>035-040>046-170900-
SOUTHWEST NORTH DAKOTA

CITY           SKY/WX    TMP DP  RH WIND       PRES   REMARKS
BISMARCK       MOCLDY    55  54  96 CALM      29.91F
DICKINSON      CLEAR     57  53  86 S9        29.89F
GARRISON         N/A     60  56  86 CALM      29.89F
HETTINGER ARPT CLEAR     58  49  72 SE5       29.95S
$$

NDZ004>008-012>016-024-026-027-054-170900-
NORTHEAST NORTH DAKOTA

CITY           SKY/WX    TMP DP  RH WIND       PRES   REMARKS
GRAND FORKS    CLOUDY    60  60 100 N12       29.80F FOG
GRND FRKS AFB  CLOUDY    58  58 100 NW8       29.81F
DEVILS LAKE    CLEAR     56  56 100 NW6       29.87F
$$

NDZ022-023-025-028>030-036>039-047>053-170900-
SOUTHEAST NORTH DAKOTA

CITY           SKY/WX    TMP DP  RH WIND       PRES   REMARKS
FARGO          CLOUDY    63  62  97 N17       29.76F
JAMESTOWN      CLEAR     56  55  97 NW7       29.84F
$$




USA.gov is the U.S. government's official web portal to all federal, state and local government web resources and services.